User: anonymous   Login
Location: Maiden_LMO
(35.5760°N, 81.2120°W)
Time: 04:50:48
(UTC-04:00)
Language:

ADEOS II - Orbit

View from above orbital plane
View from above orbital plane
View from above satellite
View from above satellite

Ground track
Ground track

The orbit data is extracted from the following two-line orbital elements,

1 27597U 02056A   17174.92201336 +.00000023 +00000-0 +26572-4 0  9990
2 27597 098.3696 144.1971 0000929 037.0223 323.1022 14.27290353756385
Epoch (UTC): 23 June 2017 22:07:41
Eccentricity: 0.0000929
inclination: 98.3696°
perigee height: 800 km
apogee height: 801 km
right ascension of ascending node: 144.1971°
argument of perigee: 37.0223°
revolutions per day: 14.27290353
mean anomaly at epoch: 323.1022°
orbit number at epoch: 75638

The dashed part of the orbit path shows where the satellite is in the earth's shadow,  

DLR